CZ-6A DEB, 61096

Orbit data source: Space-Track

CZ-6A DEB, 61096 is space debris in LEO originally from a launch on Tue, 06 Aug 2024 UTC launched from the Taiyaun Space Center, China (TSC). Debris objects in space refer to the collection of defunct objects orbiting the Earth. Examples of debris include non-operational satellites, rocket bodies, and fragments generated from explosions, collisions, or faulty payload assembly.

Loading next visibility...
Identifier
61096, 2024-140NN
Orbit
LEO
Country
Flag of CNCN / PRC
Related business
Manufacturer
SAST
Mission
Spacecraft
Bus & Motor
Unknown
Mass
Unknown
Launch date (UTC)
2024-08-06 (2 years ago)
Launch vehicle
Unknown
Launch site
Taiyaun Space Center, China (TSC)
Object type
Payload
Rocket body
Debris
Shape & HBR
Unknown shape, 0.1 m
Radar Cross Section
Medium (>0.1 m² and <1 m²)

Expand to show TLE details & history
Last TLE update: 14 hours ago

TLE from 14 hours ago
0 CZ-6A DEB
1 61096U 24140NN  26171.30641803  .00001659  00000-0  34396-3 0  9994
2 61096  89.0548 274.4514 0095170 256.2189 102.8416 14.56952219 96023
Epoch: 2026-06-20T07:21Z
TLE epoch observation values (Epoch: 2026-06-20T07:21:14.517Z)
Latitude
-0.00007°
Longitude
-104.38202°
Altitude
721.728 km
Speed
7.486 km/s
True Right ascension
18h 17m 48s
True Declination
0° 00' 00"
Sunlit
Object was in full shadow at epoch
Visualization orbit readout
Latitude
Unknown
Longitude
Unknown
Altitude
Unknown
Speed
Unknown
Apparent Right ascension
Unknown
Apparent Declination
Unknown
Sunlit
N/A
Visualization observer readout
Local Sidereal Time
08:41:34
Azimuth
Unknown
Elevation
Unknown
Doppler factor
Unknown
Orbital elements
Apogee altitude
767.292 km
Perigee altitude
632.568 km
Semi-major axis
7,078.067 km
Eccentricity
0.00952
Inclination
89.0548°
RAAN
274.4514°
Arg. of periapsis
256.2189°
True anomaly
103.90203°
Mean anomaly
102.8416°
Eccentric anomaly
103.3721°
Mean motion
3.64478 °/min
Orbital period
98.77 mins
BSTAR
0.00034396
Loading maneuver chart data...
Computing Atmospheric mass density...

Documentation

Showing up to 5 results
|